Location: Il Ritiro
(43.4167°N, 13.1333°E)
Time: 16:50:27
(UTC+00:00)

NOSS 3-3 (C) - Pass Details

Date: 05 July 2020
Orbit: 824 x 1388 km, 63.4° (Epoch: 03 August)

Event Time Altitude Azimuth Distance (km) Brightness Sun altitude
Rises 20:25:30 0° 200° (SSW) 3,376 6.5 -13.6°
Reaches altitude 10° 20:27:53 10° 197° (SSW) 2,478 5.8 -13.9°
Maximum altitude 20:33:27 57° 119° (ESE) 1,066 3.9 -14.5°
Drops below altitude 10° 20:39:42 10° 43° (NE) 2,776 6.5 -15.2°
Sets 20:42:30 0° 40° (NE) 3,817 7.3 -15.5°
